Location: Festilli
(46.4000°N, 11.6667°E)
Time: 20:36:48
(UTC+00:00)

Lacrosse 4 Rocket - Pass Details

Date: 03 March 2021
Orbit: 537 x 620 km, 68.0° (Epoch: 21 April)

Event Time Altitude Azimuth Distance (km) Brightness Sun altitude
Rises 19:09:54 0° 201° (SSW) 2,815 5.0 -22.6°
Reaches altitude 10° 19:12:07 10° 198° (SSW) 1,931 4.1 -23.0°
Enters shadow 19:14:14 28° 190° (S) 1,140 2.8 -23.3°
